This demonstration page uses our WeatherBlox Daily Observations layout. Learn more.

Left ArrowRight Arrow

39.29038, -76.61219

Hourly Observations for April 15, 2022

Temp ( °F °C ) Dew Point ( °F °C ) Humidity (%) Winds ( mph kmh ) Pressure ( in mb ) Visibility ( mi km ) Precip ( " mm )
12:54 am 00:54 Mostly Cloudy 58 14.4 31 -0.6 36 36 NW 5 7 30.04 1017 10 16 0.00 0.00
1:54 am 01:54 Mostly Clear 55 12.8 31 -0.6 40 40 WSW 3 6 30.06 1018 10 16 0.00 0.00
2:54 am 02:54 Clear 52 11.1 32 0 47 47 Calm 30.08 1019 10 16 0.00 0.00
3:54 am 03:54 Mostly Clear 50 10 32 0 50 50 W 3 6 30.10 1019 10 16 0.00 0.00
4:54 am 04:54 Mostly Clear 45 7.2 34 1.1 66 66 W 3 6 30.11 1020 10 16 0.00 0.00
5:54 am 05:54 Mostly Clear 46 7.8 35 1.7 66 66 W 3 6 30.14 1021 10 16 0.00 0.00
6:54 am 06:54 Mostly Sunny 46 7.8 34 1.1 63 63 W 6 9 30.17 1022 10 16 0.00 0.00
7:54 am 07:54 Partly Cloudy 53 11.7 35 1.7 51 51 Calm 30.19 1022 10 16 0.00 0.00
8:54 am 08:54 Mostly Sunny 59 15 34 1.1 39 39 Calm 30.19 1022 10 16 0.00 0.00
9:54 am 09:54 Mostly Sunny 64 17.8 26 -3.3 24 24 W 8 13 30.18 1022 10 16 0.00 0.00
10:54 am 10:54 Mostly Sunny 66 18.9 23 -5 19 19 VRB 3 6 30.19 1022 10 16 0.00 0.00
11:54 am 11:54 Mostly Sunny 67 19.4 25 -3.9 20 20 WSW 12 19 30.18 1022 10 16 0.00 0.00
12:54 pm 12:54 Mostly Sunny 69 20.6 24 -4.4 18 18 W 14 22 30.16 1021 10 16 0.00 0.00
1:54 pm 13:54 Mostly Sunny 70 21.1 24 -4.4 18 18 W 15 24 30.13 1020 10 16 0.00 0.00
2:54 pm 14:54 Partly Cloudy 71 21.7 24 -4.4 17 17 VRB 3 6 30.12 1020 10 16 0.00 0.00
3:54 pm 15:54 Mostly Sunny 72 22.2 23 -5 16 16 S 12 19 30.08 1019 10 16 0.00 0.00
4:54 pm 16:54 Mostly Sunny 71 21.7 25 -3.9 18 18 SSE 16 26 30.06 1018 10 16 0.00 0.00
5:54 pm 17:54 Mostly Sunny 70 21.1 26 -3.3 19 19 SSE 9 15 30.05 1018 10 16 0.00 0.00
6:54 pm 18:54 Mostly Sunny 67 19.4 27 -2.8 22 22 SSE 9 15 30.05 1018 10 16 0.00 0.00
7:54 pm 19:54 Mostly Clear 64 17.8 26 -3.3 24 24 SSE 9 15 30.06 1018 10 16 0.00 0.00
8:54 pm 20:54 Mostly Clear 60 15.6 29 -1.7 31 31 SE 6 9 30.07 1018 10 16 0.00 0.00
9:54 pm 21:54 Clear 61 16.1 27 -2.8 27 27 S 9 15 30.06 1018 10 16 0.00 0.00
10:54 pm 22:54 Mostly Clear 60 15.6 29 -1.7 31 31 S 8 13 30.06 1018 10 16 0.00 0.00
11:54 pm 23:54 Mostly Cloudy 60 15.6 34 1.1 38 38 S 9 15 30.05 1018 10 16 0.00 0.00

Powered by AerisWeather